Pagina principale
METAR-TAF:

METAR-TAF

Aeroporti :

Gombe Lawanti International Airport

Gombe, Nigeria

latitudine: 10-18-19N, longitudine: 10-54-31E, altezza: 505 m

METAR: mancante

Ora: 03:46 (02:46 UTC)

Previsione

Il bollettino è stato emesso 3 ore e 46 minuti fa, alle 23:00 UTC
Previsione valida dal 24 alle 00 UTC al 25 alle 06 UTC
Vento 10 kt da est/nord-est
Visibilità 10 km o più
nessuna nube inferiore a 1500 m e nessun cumulonembo
Temporaneamente
dal 24 alle 08 UTC al 24 alle 13 UTC
Visibilità: 3000 m
foschia

TAF: DNGO 232300Z 2400/2506 07010KT CAVOK TEMPO 2408/2413 3000 HZ

Osservazioni e previsioni meteorologiche di più di 4000 aeroporti (messaggi METAR e TAF).

Le stazioni disponibili sono rappresentate dai dischi gialli e rossi sulla carta.

Puntare il mouse per vedere il nome della stazione.

Clicca sopra per visualizzare le osservazioni e previsioni meteorologiche.

Per cambiare la mappa : fare clic sui pulsanti verdi con una croce nera per ingrandire, il pulsante verde con un trattino per diminuire, o sulla freccia verde per le mappe adiacenti.


METAR-TAF: